Weather History for Mount Carmel, IL

Change the Weather History Date:

Monday, December 30, 2013

  Actual Average (KLWV) Record (KLWV)
Temperature  
Mean Temperature 20 °F 32 °F  
Max Temperature 24 °F 39 °F 60 °F (1990)
Min Temperature 15 °F 24 °F -1 °F (2012)
Degree Days  
Heating Degree Days 46 34  
Month to date heating degree days 907  
Since 1 July heating degree days 1765  
Cooling Degree Days 0 0  
Month to date cooling degree days 0  
Year to date cooling degree days 1387  
Moisture  
Dew Point 14 °F    
Average Humidity 74    
Maximum Humidity 86    
Minimum Humidity 59    
Precipitation  
Precipitation 0.06 in 0.11 in 1.99 in (1990)
Month to date precipitation 3.29  
Year to date precipitation 43.78  
Sea Level Pressure  
Sea Level Pressure 30.28 in    
Wind  
Wind Speed 8 mph (WNW)    
Max Wind Speed 14 mph    
Max Gust Speed 17 mph    
Visibility 10 miles    
Events Snow    
T = Trace of Precipitation, MM = Missing Value Source: NWS Daily Summary

Daily Weather History Graph

Daily Weather History Graph

Search for Another Location

Airport:

Trip Planner

Search our weather history database for the weather conditions in past years. The results will help you decide how hot, cold, wet, or windy it might be!

Date:

Astronomy

Dec. 30, 2013 Rise Set
Actual Time 7:08 AM CST 4:38 PM CST
Civil Twilight 6:38 AM CST 5:08 PM CST
Nautical Twilight 6:05 AM CST 5:41 PM CST
Astronomical Twilight 5:33 AM CST 6:14 PM CST
Moon 4:58 AM CST (12/30) 3:11 PM CST (12/30)
Length of Visible Light 10h 30m
Length of Day
9h 30m
Waning Crescent, 4% of the Moon is Illuminated
Dec 30
Waning Crescent
Jan 1
New
Jan 7
First Quarter
Jan 15
Full
Jan 23
Last Quarter

Hourly Weather History & Observations

Time (CST) Temp. Windchill Dew Point Humidity Pressure Visibility Wind Dir Wind Speed Gust Speed Precip Events Conditions
12:15 AM 24.8 °F 13.4 °F 19.4 °F 80% 30.21 in 10.0 mi NW 12.7 mph 17.3 mph N/A   Overcast
12:35 AM 24.8 °F 13.4 °F 19.4 °F 80% 30.21 in 10.0 mi NW 12.7 mph - N/A   Overcast
12:55 AM 23.0 °F 11.1 °F 19.4 °F 86% 30.20 in 10.0 mi NW 12.7 mph - N/A   Overcast
1:15 AM 23.0 °F 11.1 °F 19.4 °F 86% 30.22 in 10.0 mi NW 12.7 mph - N/A   Overcast
1:35 AM 23.0 °F 10.6 °F 19.4 °F 86% 30.22 in 10.0 mi NNW 13.8 mph - N/A   Overcast
1:55 AM 23.0 °F 11.7 °F 19.4 °F 86% 30.23 in 10.0 mi NNW 11.5 mph - N/A   Overcast
2:15 AM 23.0 °F 11.1 °F 19.4 °F 86% 30.24 in 10.0 mi NW 12.7 mph - N/A   Overcast
2:35 AM 21.2 °F 9.5 °F 17.6 °F 86% 30.25 in 10.0 mi NW 11.5 mph - N/A   Overcast
2:55 AM 21.2 °F 8.9 °F 17.6 °F 86% 30.25 in 10.0 mi NNW 12.7 mph - N/A   Overcast
3:15 AM 21.2 °F 8.9 °F 17.6 °F 86% 30.26 in 10.0 mi NW 12.7 mph 16.1 mph N/A   Overcast
3:35 AM 19.4 °F 6.6 °F 14.0 °F 80% 30.27 in 10.0 mi WNW 12.7 mph 16.1 mph N/A   Overcast
3:55 AM 19.4 °F 7.2 °F 14.0 °F 80% 30.27 in 10.0 mi NW 11.5 mph - N/A   Overcast
4:15 AM 19.4 °F 7.2 °F 14.0 °F 80% 30.28 in 10.0 mi WNW 11.5 mph - N/A   Overcast
4:35 AM 19.4 °F 7.2 °F 12.2 °F 74% 30.28 in 10.0 mi NW 11.5 mph - N/A   Overcast
4:55 AM 17.6 °F 6.4 °F 12.2 °F 79% 30.29 in 10.0 mi NW 9.2 mph - N/A   Overcast
5:15 AM 17.6 °F 5.0 °F 12.2 °F 79% 30.29 in 10.0 mi WNW 11.5 mph 16.1 mph N/A Snow Light Snow
5:35 AM 17.6 °F 8.2 °F 12.2 °F 79% 30.30 in 10.0 mi NNW 6.9 mph - 0.01 in   Overcast
5:55 AM 17.6 °F 5.7 °F 12.2 °F 79% 30.30 in 10.0 mi WNW 10.4 mph - 0.01 in   Overcast
6:15 AM 17.6 °F 6.4 °F 12.2 °F 79% 30.30 in 10.0 mi NNW 9.2 mph - N/A   Mostly Cloudy
6:35 AM 17.6 °F 8.2 °F 12.2 °F 79% 30.31 in 10.0 mi NNW 6.9 mph - N/A   Overcast
6:55 AM 17.6 °F 7.3 °F 10.4 °F 73% 30.31 in 10.0 mi North 8.1 mph - N/A   Mostly Cloudy
7:15 AM 15.8 °F 5.1 °F 10.4 °F 79% 30.31 in 10.0 mi North 8.1 mph - N/A   Scattered Clouds
7:35 AM 15.8 °F 3.4 °F 10.4 °F 79% 30.32 in 10.0 mi North 10.4 mph - 0.01 in   Mostly Cloudy
7:55 AM 15.8 °F 4.2 °F 10.4 °F 79% 30.32 in 10.0 mi NNW 9.2 mph - 0.01 in   Mostly Cloudy
8:15 AM 15.8 °F 3.4 °F 10.4 °F 79% 30.33 in 10.0 mi NNW 10.4 mph - N/A   Scattered Clouds
8:35 AM 15.8 °F 4.2 °F 10.4 °F 79% 30.34 in 10.0 mi NNW 9.2 mph - N/A   Clear
8:55 AM 15.8 °F 4.2 °F 10.4 °F 79% 30.34 in 10.0 mi NW 9.2 mph - N/A   Clear
9:15 AM 15.8 °F 6.1 °F 10.4 °F 79% 30.35 in 10.0 mi NW 6.9 mph - N/A   Clear
9:35 AM 15.8 °F 6.1 °F 10.4 °F 79% 30.35 in 10.0 mi NNW 6.9 mph - N/A   Clear
9:55 AM 17.6 °F 8.2 °F 10.4 °F 73% 30.35 in 10.0 mi NW 6.9 mph - 0.01 in   Clear
10:15 AM 17.6 °F 10.7 °F 10.4 °F 73% 30.35 in 10.0 mi North 4.6 mph - N/A   Clear
10:35 AM 17.6 °F 10.7 °F 10.4 °F 73% 30.35 in 10.0 mi NNW 4.6 mph - N/A   Clear
10:55 AM 19.4 °F 14.3 °F 10.4 °F 68% 30.34 in 10.0 mi WNW 3.5 mph - N/A   Clear
11:15 AM 19.4 °F 12.8 °F 10.4 °F 68% 30.33 in 10.0 mi NW 4.6 mph - N/A   Clear
11:35 AM 19.4 °F - 10.4 °F 68% 30.31 in 10.0 mi Calm Calm - N/A   Clear
11:55 AM 21.2 °F - 10.4 °F 63% 30.30 in 10.0 mi Calm Calm - 0.01 in   Clear
12:15 PM 21.2 °F - 10.4 °F 63% 30.29 in 10.0 mi Calm Calm - N/A   Clear
12:35 PM 21.2 °F - 12.2 °F 68% 30.28 in 10.0 mi Calm Calm - N/A   Clear
12:55 PM 23.0 °F - 12.2 °F 63% 30.28 in 10.0 mi Calm Calm - N/A   Clear
1:15 PM 23.0 °F - 12.2 °F 63% 30.27 in 10.0 mi Calm Calm - N/A   Unknown
1:35 PM 23.0 °F - 12.2 °F 63% 30.26 in 10.0 mi Calm Calm - N/A   Clear
1:55 PM 23.0 °F - 12.2 °F 63% 30.26 in 10.0 mi Calm Calm - N/A   Clear
2:15 PM 23.0 °F - 10.4 °F 59% 30.26 in 10.0 mi Calm Calm - N/A   Clear
2:35 PM 23.0 °F - 12.2 °F 63% 30.25 in 10.0 mi Calm Calm - 0.01 in   Clear
2:55 PM 23.0 °F 15.8 °F 14.0 °F 68% 30.26 in 10.0 mi West 5.8 mph - 0.01 in   Clear
3:15 PM 23.0 °F 18.4 °F 12.2 °F 63% 30.26 in 10.0 mi West 3.5 mph - N/A   Clear
3:35 PM 23.0 °F 17.0 °F 12.2 °F 63% 30.26 in 10.0 mi WSW 4.6 mph - N/A   Clear
3:55 PM 23.0 °F 17.0 °F 12.2 °F 63% 30.26 in 10.0 mi WSW 4.6 mph - N/A   Clear
4:15 PM 23.0 °F 15.8 °F 12.2 °F 63% 30.26 in 10.0 mi WSW 5.8 mph - N/A   Scattered Clouds
4:35 PM 23.0 °F 17.0 °F 14.0 °F 68% 30.26 in 10.0 mi WSW 4.6 mph - N/A   Clear
4:55 PM 23.0 °F - 12.2 °F 63% 30.26 in 10.0 mi Calm Calm - N/A   Scattered Clouds
5:15 PM 23.0 °F - 14.0 °F 68% 30.26 in 10.0 mi Calm Calm - N/A   Scattered Clouds
5:35 PM 23.0 °F 17.0 °F 12.2 °F 63% 30.27 in 10.0 mi West 4.6 mph - N/A   Scattered Clouds
5:55 PM 23.0 °F 15.8 °F 14.0 °F 68% 30.28 in 10.0 mi WNW 5.8 mph - N/A   Mostly Cloudy
6:15 PM 23.0 °F 15.8 °F 14.0 °F 68% 30.28 in 10.0 mi WNW 5.8 mph - N/A   Scattered Clouds
6:35 PM 23.0 °F 18.4 °F 14.0 °F 68% 30.28 in 10.0 mi WNW 3.5 mph - 0.01 in   Clear
6:55 PM 23.0 °F - 14.0 °F 68% 30.28 in 10.0 mi Calm Calm - 0.01 in   Clear
7:15 PM 23.0 °F - 14.0 °F 68% 30.28 in 10.0 mi Calm Calm - N/A   Scattered Clouds
7:35 PM 21.2 °F - 14.0 °F 74% 30.27 in 10.0 mi Calm Calm - N/A   Mostly Cloudy
7:55 PM 21.2 °F - 14.0 °F 74% 30.27 in 10.0 mi Calm Calm - N/A   Mostly Cloudy
8:15 PM 21.2 °F 14.9 °F 15.8 °F 80% 30.27 in 10.0 mi South 4.6 mph - N/A   Scattered Clouds
8:35 PM 21.2 °F - 15.8 °F 80% 30.27 in 10.0 mi Calm Calm - N/A   Mostly Cloudy
8:55 PM 21.2 °F - 14.0 °F 74% 30.27 in 10.0 mi Calm Calm - N/A   Scattered Clouds
9:15 PM 23.0 °F 17.0 °F 15.8 °F 74% 30.27 in 10.0 mi SSW 4.6 mph - N/A   Scattered Clouds
9:35 PM 23.0 °F 15.8 °F 15.8 °F 74% 30.26 in 10.0 mi South 5.8 mph - N/A   Clear
9:55 PM 23.0 °F 15.8 °F 17.6 °F 80% 30.24 in 10.0 mi South 5.8 mph - N/A   Scattered Clouds
10:15 PM 23.0 °F 14.7 °F 14.0 °F 68% 30.25 in 10.0 mi SSW 6.9 mph - N/A   Scattered Clouds
10:35 PM 23.0 °F 15.8 °F 15.8 °F 74% 30.25 in 10.0 mi South 5.8 mph - N/A   Mostly Cloudy
10:55 PM 23.0 °F 15.8 °F 17.6 °F 80% 30.25 in 10.0 mi SSW 5.8 mph - N/A   Overcast
11:15 PM 24.8 °F 17.9 °F 17.6 °F 74% 30.26 in 10.0 mi SW 5.8 mph - N/A   Overcast
11:35 PM 24.8 °F 17.9 °F 17.6 °F 74% 30.26 in 10.0 mi SW 5.8 mph - N/A   Overcast
11:55 PM 24.8 °F 17.9 °F 19.4 °F 80% 30.25 in 10.0 mi SSW 5.8 mph - N/A   Overcast